Location: Clayton (historical)
(34.0300°N, 118.0259°W)
Time: 09:58:15
(UTC+00:00)

Hubble Space Telescope - Pass Details

Date: 25 January 2021
Orbit: 536 x 539 km, 28.5° (Epoch: 26 February)

Event Time Altitude Azimuth Distance (km) Brightness Sun altitude
Rises 02:53:05 0° 263° (W) 2,675 5.9 -20.3°
Reaches altitude 10° 02:55:36 10° 251° (WSW) 1,783 4.6 -20.8°
Maximum altitude 02:59:03 26° 194° (SSW) 1,080 2.5 -21.5°
Enters shadow 03:00:22 22° 164° (SSE) 1,209 2.4 -21.8°
